Wind_Speed
9 9 9 9 10 10 10 9 8 7 7 6 6 6 5 4 4 3 2 2 2 2 2 1 1 1 1 1 1 2 2 2 2 2 3 3 3 4 4 5 5 6 7
11 11 11 11 11 11 11 10 9 8 7 7 7 6 6 4 3 3 2 2 1 1 1 1 0 1 1 1 1 2 2 2 2 3 3 3 3 4 4 5 6 6 7
12 12 13 13 12 12 11 10 10 9 8 8 7 7 6 5 4 3 2 1 1 1 1 1 1 1 1 1 2 2 2 2 2 3 3 4 4 4 5 6 6 6 6
12 13 14 14 14 14 12 11 11 10 9 8 8 7 6 5 4 3 3 2 1 1 1 1 1 1 2 2 2 2 2 2 3 3 3 4 4 4 5 6 6 6 6
13 14 14 14 15 15 14 12 11 10 10 9 8 7 7 6 5 4 3 2 2 2 2 2 2 2 2 2 3 3 3 3 3 3 3 4 4 5 5 5 5 5 5
13 14 14 15 15 15 14 13 12 12 11 10 9 8 7 6 5 4 3 3 3 3 3 2 2 3 3 3 3 3 3 3 3 3 3 4 5 5 5 5 5 4 4
13 14 15 16 16 16 16 15 14 13 12 11 10 9 8 6 5 4 4 3 3 3 3 2 3 3 4 4 4 4 4 4 4 4 3 4 4 5 5 5 5 4 5
12 14 16 17 17 17 16 16 15 15 13 12 11 10 8 7 6 5 5 4 4 3 3 3 3 3 4 4 4 4 4 5 5 5 4 4 4 5 5 5 5 5 5
12 14 16 17 17 17 18 17 16 15 14 12 11 10 8 7 6 6 5 5 4 3 3 3 3 3 4 4 4 4 5 5 5 5 5 4 5 5 6 5 6 6 5
12 13 15 16 17 17 18 17 17 16 14 13 12 10 9 8 7 6 5 4 4 4 4 3 3 4 4 4 5 5 5 5 5 6 6 5 5 6 6 6 7 7 6
12 14 15 16 17 18 18 18 17 16 15 13 12 10 9 9 8 6 5 5 5 4 4 4 4 4 4 4 5 5 5 5 5 6 6 6 5 6 7 7 8 8 7
11 12 12 14 16 17 18 18 18 17 15 15 13 11 10 9 7 6 5 5 5 5 4 4 4 4 4 5 5 5 5 5 5 6 6 6 5 6 7 7 8 8 8
13 12 12 14 15 16 17 18 17 16 16 15 14 12 10 8 6 5 5 5 5 4 4 4 3 3 4 4 4 5 5 5 6 6 6 6 6 6 7 7 8 9 9
14 13 14 15 15 16 17 18 16 16 15 14 13 10 8 7 6 5 5 4 4 3 3 3 2 3 3 4 4 4 4 5 5 6 6 6 6 6 7 7 8 9 9
15 14 13 14 14 15 17 17 16 16 14 13 12 10 8 7 6 4 4 4 3 3 2 2 2 2 2 3 3 3 3 3 4 5 6 6 6 6 7 7 8 9 10
13 13 13 14 13 14 15 15 15 14 13 12 11 9 8 8 6 4 4 3 3 2 2 1 1 1 2 2 2 2 2 2 3 3 4 5 5 6 6 6 7 7 8
12 11 12 13 13 13 14 14 15 14 13 12 11 10 9 8 7 5 4 4 3 2 1 1 1 1 1 1 1 1 1 1 2 2 2 3 4 5 5 6 7 7 7
11 10 12 11 12 12 13 13 14 14 13 12 11 10 9 8 7 6 5 4 3 2 1 0 1 1 1 1 1 1 1 1 2 2 2 2 2 2 4 5 5 7 7
9 9 9 10 11 11 11 13 14 15 14 12 12 10 9 8 7 7 6 5 4 3 1 0 1 2 2 2 2 2 2 2 2 2 2 2 2 3 3 4 4 5 7
8 7 8 9 10 11 11 12 12 13 13 12 12 11 9 8 8 7 6 5 4 3 2 1 2 2 2 3 3 3 3 2 2 2 3 2 2 3 3 3 3 4 5
6 5 7 8 9 10 11 11 11 11 12 12 12 11 10 9 9 9 8 6 5 4 3 2 2 2 2 3 3 3 3 3 3 3 3 2 3 3 3 3 3 3 4
5 5 5 7 8 9 11 11 11 11 11 11 11 11 10 9 9 10 9 7 6 5 4 2 1 1 1 2 2 3 4 4 4 4 4 3 3 3 3 3 3 3 3
5 4 4 6 8 9 10 10 10 11 11 11 11 11 10 10 10 10 9 8 7 6 5 3 2 0 0 0 1 2 3 3 4 4 4 4 4 3 3 3 3 3 3
6 5 4 5 8 9 9 10 10 11 11 11 12 12 11 10 10 10 10 9 8 7 6 5 4 3 2 2 2 1 2 2 3 3 4 4 4 4 4 4 4 4 4
6 5 4 5 7 8 9 10 10 11 12 12 12 12 11 11 11 11 11 10 9 8 7 7 6 5 4 4 4 4 3 3 4 4 4 4 5 5 5 5 5 5 5
6 5 4 4 6 8 9 10 10 11 11 12 13 13 12 11 11 12 12 11 10 10 9 9 8 7 7 7 6 6 6 6 6 6 6 6 6 7 7 7 7 7 8
Wind_Direction
242 234 233 225 220 215 207 205 205 206 210 212 210 206 199 185 171 158 143 126 109 101 106 107 97 96 113 129 134 140 137 136 122 124 129 122 114 110 114 112 110 107 103
253 247 239 231 227 218 213 210 209 212 217 220 220 217 211 201 189 181 167 151 132 121 142 159 163 154 152 156 166 167 158 157 141 138 142 135 128 121 122 119 119 110 107
260 253 245 238 230 223 219 217 215 218 221 225 228 226 220 211 208 205 197 199 208 198 217 224 221 201 197 197 200 191 182 178 166 154 154 150 146 134 131 127 122 115 111
266 257 248 242 235 231 225 223 220 222 224 229 232 232 229 224 220 218 217 228 237 241 242 240 228 220 217 222 221 214 206 190 181 178 167 165 162 150 143 139 128 122 115
267 258 248 242 238 234 228 225 223 224 227 232 234 236 235 232 229 229 230 239 243 247 252 251 244 236 233 232 232 230 224 213 207 189 176 175 174 164 159 149 139 133 125
267 259 250 242 238 235 231 229 226 227 230 234 237 238 237 236 235 234 237 245 251 257 258 253 251 245 237 234 237 242 239 231 219 205 179 184 184 176 172 164 158 151 144
272 259 250 244 238 235 233 232 229 229 232 236 240 238 240 238 235 237 242 247 258 262 259 255 252 250 241 236 236 243 240 233 222 215 202 196 189 187 183 176 175 170 157
272 259 247 241 238 235 232 231 231 230 231 236 239 239 240 238 239 245 251 252 261 265 265 262 254 252 247 243 240 240 237 233 225 222 220 220 207 206 201 193 189 184 173
275 258 244 238 237 235 232 230 229 228 230 234 237 239 239 240 244 251 259 261 265 265 265 263 255 246 243 244 246 245 240 239 234 232 233 234 228 222 215 209 206 201 192
274 256 243 240 238 235 232 229 224 226 229 233 235 238 241 242 246 252 259 261 262 266 263 261 257 250 248 248 248 247 246 247 244 240 239 243 241 232 227 223 215 213 207
272 259 251 244 238 234 232 229 225 226 228 230 233 238 240 241 245 250 255 262 265 267 265 263 261 256 253 253 251 250 250 250 247 245 242 247 251 243 238 232 225 220 216
276 262 255 249 240 234 231 229 228 228 229 229 229 234 236 240 240 248 258 262 263 262 264 264 263 260 258 260 257 255 256 256 252 252 248 251 255 248 244 238 230 226 225
285 275 269 252 239 232 228 227 228 229 230 229 229 231 235 238 238 246 258 261 261 259 259 260 262 264 266 269 268 265 263 262 258 258 254 254 256 254 248 242 236 234 233
288 279 265 248 238 233 227 225 226 226 225 226 231 232 234 234 233 243 256 263 264 262 264 264 264 265 268 269 271 273 273 265 258 252 249 252 254 254 250 245 239 237 237
287 279 258 247 242 236 230 225 223 221 221 225 225 229 231 230 230 235 241 244 255 259 268 278 274 272 273 274 276 278 281 274 266 256 255 256 260 258 253 246 245 242 241
288 275 262 251 243 236 230 222 219 220 222 224 228 224 222 223 223 225 227 232 244 252 260 283 303 297 286 288 292 284 282 283 284 276 273 267 262 257 252 247 249 248 245
289 273 259 248 238 230 225 221 221 217 218 223 225 220 217 219 223 220 218 219 227 235 252 301 338 333 324 322 326 324 305 302 310 303 292 287 271 259 253 252 251 253 252
288 274 261 244 239 231 223 221 215 216 219 217 219 217 215 214 215 207 208 210 215 221 232 3 31 31 27 23 18 3 353 348 339 332 323 330 323 285 267 266 260 253 256
288 276 255 244 241 229 222 216 214 214 217 217 213 212 210 209 205 198 202 205 206 204 195 92 52 45 41 44 43 44 46 43 25 12 360 344 340 335 314 284 270 264 260
288 271 257 243 230 222 220 215 214 211 210 210 207 209 210 210 207 202 203 202 199 187 175 134 71 51 53 62 68 59 54 56 49 31 19 6 353 344 334 322 293 283 277
294 280 257 242 231 219 212 214 214 211 208 208 207 208 209 210 210 204 201 199 194 186 175 140 92 65 61 65 64 55 49 46 42 39 29 24 10 3 356 349 335 311 298
307 291 264 237 228 216 212 213 216 215 211 210 211 211 209 210 206 201 200 199 194 191 186 168 129 82 68 63 63 55 47 40 36 36 34 33 28 22 16 9 3 345 324
327 309 284 237 225 220 217 214 215 209 208 211 212 212 213 211 206 201 200 202 200 197 197 198 197 203 309 338 22 36 33 30 33 32 29 28 26 24 18 12 9 4 348
325 323 295 253 229 225 219 214 213 210 210 210 210 212 212 212 207 206 204 208 208 207 213 224 239 252 266 275 290 314 342 352 2 9 8 6 5 2 3 356 350 345 344
318 318 297 253 230 223 215 214 216 212 214 213 211 213 215 215 212 210 211 213 216 220 226 234 244 254 263 267 275 283 294 304 313 321 330 333 335 332 332 334 335 333 328
312 305 292 255 230 216 212 211 211 212 213 212 215 219 218 216 215 215 216 219 223 230 235 239 248 254 259 264 269 273 281 286 293 299 303 308 311 314 312 311 312 313 311
Height
5872 5872 5873 5875 5876 5877 5878 5879 5880 5880 5881 5882 5882 5882 5882 5882 5882 5882 5882 5882 5882 5882 5882 5882 5882 5882 5882 5882 5882 5882 5882 5882 5882 5882 5882 5882 5883 5883 5884 5884 5885 5885 5886
5871 5872 5873 5874 5875 5876 5877 5879 5880 5880 5881 5882 5882 5882 5882 5882 5882 5882 5883 5882 5882 5882 5882 5882 5882 5882 5882 5882 5882 5882 5882 5882 5882 5882 5883 5883 5883 5884 5884 5885 5886 5886 5887
5870 5871 5872 5873 5874 5876 5877 5878 5879 5880 5881 5882 5882 5882 5882 5882 5882 5882 5883 5882 5882 5882 5883 5883 5883 5882 5882 5882 5882 5882 5882 5882 5883 5883 5883 5883 5884 5884 5885 5886 5886 5887 5888
5869 5870 5871 5872 5873 5875 5876 5878 5879 5880 5880 5881 5882 5882 5882 5882 5882 5882 5882 5882 5882 5882 5882 5883 5883 5882 5882 5882 5882 5883 5883 5883 5883 5882 5883 5884 5884 5885 5886 5887 5887 5888 5889
5868 5869 5869 5871 5872 5873 5875 5877 5878 5879 5880 5881 5881 5882 5882 5882 5882 5882 5882 5882 5882 5882 5882 5882 5882 5882 5882 5882 5882 5883 5883 5883 5882 5882 5883 5884 5885 5886 5886 5887 5888 5889 5889
5867 5867 5868 5869 5870 5872 5874 5875 5877 5878 5879 5880 5881 5881 5881 5881 5882 5882 5882 5882 5882 5882 5882 5882 5882 5882 5882 5882 5882 5882 5882 5883 5883 5883 5883 5884 5885 5886 5887 5888 5888 5889 5890
5865 5865 5866 5867 5868 5870 5872 5874 5876 5877 5878 5879 5880 5880 5881 5881 5881 5881 5881 5881 5881 5882 5882 5882 5882 5882 5882 5882 5882 5882 5882 5883 5883 5883 5884 5885 5885 5886 5887 5888 5889 5890 5891
5863 5863 5862 5864 5866 5868 5870 5872 5874 5875 5877 5878 5879 5879 5880 5880 5881 5881 5881 5881 5881 5881 5881 5881 5881 5882 5882 5881 5882 5882 5882 5883 5883 5884 5884 5885 5886 5887 5887 5888 5889 5890 5891
5860 5860 5859 5861 5864 5866 5868 5870 5872 5874 5875 5877 5878 5878 5879 5880 5880 5880 5880 5881 5881 5881 5881 5881 5881 5881 5881 5881 5881 5881 5882 5882 5883 5883 5884 5884 5886 5886 5887 5888 5889 5890 5891
5857 5857 5857 5859 5861 5863 5865 5868 5870 5872 5873 5875 5876 5877 5878 5879 5879 5880 5880 5880 5880 5880 5880 5880 5881 5881 5880 5881 5881 5881 5882 5882 5883 5883 5883 5884 5885 5886 5887 5888 5889 5890 5891
5854 5854 5856 5857 5859 5861 5863 5865 5867 5870 5871 5873 5875 5876 5877 5878 5878 5879 5879 5879 5880 5880 5880 5880 5880 5880 5880 5880 5880 5881 5881 5882 5881 5882 5883 5883 5885 5885 5887 5888 5889 5890 5891
5851 5850 5852 5854 5856 5858 5861 5863 5866 5868 5870 5871 5873 5875 5876 5877 5877 5878 5878 5878 5879 5879 5879 5879 5879 5880 5880 5880 5880 5880 5881 5881 5881 5881 5882 5883 5884 5885 5886 5887 5888 5889 5891
5849 5849 5850 5852 5854 5856 5859 5861 5863 5866 5868 5870 5872 5873 5875 5876 5876 5877 5877 5877 5878 5878 5879 5879 5879 5879 5879 5879 5880 5880 5880 5881 5881 5880 5882 5882 5883 5884 5885 5886 5887 5889 5890
5848 5848 5849 5849 5851 5854 5856 5858 5861 5864 5866 5869 5870 5872 5874 5875 5876 5876 5877 5877 5877 5878 5878 5878 5878 5878 5879 5879 5879 5879 5880 5880 5880 5880 5881 5882 5883 5884 5884 5885 5886 5888 5889
5845 5845 5845 5846 5849 5852 5854 5856 5859 5862 5865 5867 5869 5871 5872 5874 5874 5875 5876 5876 5877 5877 5878 5878 5878 5878 5878 5878 5879 5879 5879 5878 5879 5880 5880 5881 5882 5883 5883 5884 5885 5886 5888
5842 5842 5843 5845 5846 5849 5852 5854 5857 5860 5863 5865 5867 5869 5871 5872 5873 5874 5875 5876 5877 5877 5877 5878 5878 5878 5878 5878 5878 5878 5878 5878 5879 5879 5880 5880 5881 5881 5882 5883 5884 5885 5886
5840 5840 5840 5842 5845 5847 5850 5853 5855 5859 5862 5864 5866 5868 5869 5871 5872 5873 5875 5876 5876 5877 5877 5877 5878 5878 5878 5878 5878 5878 5878 5878 5878 5879 5879 5879 5880 5880 5881 5882 5883 5884 5885
5838 5838 5839 5840 5843 5846 5848 5851 5854 5857 5859 5862 5864 5866 5868 5870 5871 5873 5874 5875 5876 5877 5877 5877 5878 5878 5878 5877 5877 5878 5878 5878 5878 5878 5879 5879 5879 5879 5880 5881 5882 5883 5883
5837 5837 5837 5839 5842 5844 5846 5849 5852 5855 5858 5861 5863 5865 5867 5869 5870 5872 5873 5874 5875 5876 5877 5877 5878 5878 5878 5878 5878 5878 5878 5878 5878 5878 5878 5879 5879 5879 5879 5880 5881 5881 5882
5836 5835 5837 5838 5840 5842 5845 5848 5851 5854 5856 5859 5862 5864 5866 5867 5869 5871 5873 5874 5875 5876 5877 5877 5878 5878 5878 5878 5878 5878 5878 5878 5878 5878 5878 5878 5879 5879 5879 5879 5880 5880 5881
5835 5835 5836 5837 5839 5841 5844 5847 5850 5852 5855 5858 5861 5863 5864 5866 5868 5870 5872 5873 5875 5876 5877 5877 5877 5878 5878 5878 5878 5878 5878 5878 5878 5878 5878 5878 5878 5878 5879 5879 5879 5880 5880
5835 5835 5835 5836 5838 5840 5842 5845 5848 5851 5853 5856 5859 5861 5863 5865 5867 5869 5871 5873 5874 5875 5876 5877 5877 5878 5878 5878 5878 5878 5878 5879 5878 5878 5878 5878 5878 5878 5878 5879 5879 5879 5879
5835 5835 5834 5835 5837 5839 5841 5843 5846 5849 5851 5855 5857 5860 5862 5864 5866 5868 5870 5872 5873 5875 5875 5876 5877 5877 5878 5878 5878 5879 5879 5879 5878 5878 5878 5878 5878 5878 5878 5878 5878 5879 5879
5835 5834 5834 5835 5837 5838 5840 5842 5845 5847 5850 5853 5855 5858 5861 5863 5865 5867 5869 5871 5872 5873 5874 5875 5876 5877 5877 5878 5878 5878 5878 5878 5879 5878 5878 5878 5878 5878 5878 5878 5878 5878 5878
5835 5834 5834 5835 5836 5837 5839 5841 5843 5846 5849 5851 5854 5856 5859 5861 5863 5865 5867 5869 5871 5872 5873 5874 5875 5876 5876 5877 5877 5877 5878 5878 5878 5878 5878 5878 5878 5877 5877 5877 5877 5877 5877
5834 5834 5834 5834 5835 5836 5838 5840 5842 5845 5847 5850 5852 5855 5857 5859 5861 5864 5865 5867 5869 5870 5872 5873 5873 5874 5875 5875 5876 5876 5877 5877 5877 5877 5877 5877 5877 5876 5876 5876 5876 5876 5876